Jaffrey, NH

9:01 AM EST on December 09, 2019 (GMT -0500)
Jaffrey Airport-Silver Ranch

Weather History for KAFN - July, 2019

Change the Weather History Date:

Friday, July 19, 2019

  Actual Average Record
Temperature  
Mean Temperature 75 °F -  
Max Temperature 89 °F 75 °F 93 °F (2013)
Min Temperature 62 °F 55 °F 48 °F (2018)
Cooling Degree Days 10    
Growing Degree Days 25 (Base 50)    
Moisture  
Dew Point 63 °F    
Average Humidity 68    
Maximum Humidity 80    
Minimum Humidity 55    
Precipitation  
Precipitation 0.00 in - - ()
Sea Level Pressure  
Sea Level Pressure 29.89 in    
Wind  
Wind Speed 3 mph (SSW)    
Max Wind Speed 9 mph    
Max Gust Speed -    
Visibility 10 miles    
Events      
Averages and records for this station are not official NWS values.
T = Trace of Precipitation, MM = Missing Value Source: NWS Daily Summary

Daily Weather History Graph

Daily Weather History Graph

Search for Another Location

Airport or City:

Astronomy

Jul. 19, 2019 Rise Set
Actual Time 5:26 AM EDT 8:21 PM EDT
Civil Twilight 4:52 AM EDT 8:55 PM EDT
Nautical Twilight 4:10 AM EDT 9:37 PM EDT
Astronomical Twilight 3:20 AM EDT 10:27 PM EDT
Moon 10:15 PM EDT (7/19) 7:52 AM EDT (7/19)
Length of Visible Light 16h 02m
Length of Day
14h 55m
Waning Gibbous, 93% of the Moon is Illuminated
Jul 19
Waning Gibbous
Jul 24
Last Quarter
Jul 31
New
Aug 7
First Quarter
Aug 15
Full

Hourly Weather History & Observations

Time (EDT) Temp. Heat Index Dew Point Humidity Pressure Visibility Wind Dir Wind Speed Gust Speed Precip Events Conditions
12:52 AM 62.1 °F - 55.9 °F 80% 29.96 in 10.0 mi South 4.6 mph - N/A   Overcast
1:01 AM 64.0 °F - 55.0 °F 73% 29.96 in 10.0 mi Calm Calm - N/A   Overcast
1:16 AM 64.0 °F - 55.9 °F 75% 29.95 in 10.0 mi Calm Calm - N/A   Overcast
1:52 AM 64.0 °F - 55.0 °F 73% 29.95 in 10.0 mi Calm Calm - N/A   Overcast
2:52 AM 64.0 °F - 55.0 °F 73% 29.93 in 10.0 mi Calm Calm - N/A   Overcast
2:59 AM 64.0 °F - 55.0 °F 73% 29.93 in 10.0 mi Calm Calm - N/A   Overcast
3:26 AM 64.0 °F - 55.9 °F 75% 29.93 in 10.0 mi Calm Calm - N/A   Overcast
3:38 AM 64.0 °F - 55.0 °F 73% 29.93 in 10.0 mi Calm Calm - N/A   Overcast
4:52 AM 64.0 °F - 57.0 °F 78% 29.93 in 10.0 mi Calm Calm - N/A   Overcast
5:37 AM 64.9 °F - 57.0 °F 75% 29.93 in 10.0 mi Calm Calm - N/A   Overcast
5:52 AM 64.9 °F - 57.0 °F 75% 29.93 in 10.0 mi Calm Calm - N/A   Overcast
6:11 AM 64.9 °F - 57.0 °F 75% 29.93 in 10.0 mi Calm Calm - N/A   Overcast
6:52 AM 66.0 °F - 57.0 °F 73% 29.93 in 10.0 mi Calm Calm - N/A   Overcast
6:59 AM 66.0 °F - 57.0 °F 73% 29.93 in 10.0 mi Calm Calm - N/A   Overcast
7:52 AM 68.0 °F - 55.9 °F 65% 29.93 in 10.0 mi SSW 3.5 mph - N/A   Overcast
8:52 AM 71.1 °F - 61.0 °F 70% 29.91 in 10.0 mi SSW 6.9 mph - N/A   Scattered Clouds
9:52 AM 73.9 °F - 63.0 °F 68% 29.90 in 10.0 mi SW 8.1 mph - N/A   Clear
10:52 AM 79.0 °F - 66.0 °F 64% 29.90 in 10.0 mi South 8.1 mph - N/A   Partly Cloudy
11:52 AM 81.0 °F 83.3 °F 66.9 °F 62% 29.88 in 10.0 mi Variable 6.9 mph - N/A   Partly Cloudy
12:52 PM 84.9 °F 88.8 °F 69.1 °F 59% 29.87 in 10.0 mi South 9.2 mph - N/A   Clear
1:52 PM 86.0 °F 90.1 °F 69.1 °F 57% 29.84 in 10.0 mi Variable 6.9 mph - N/A   Partly Cloudy
2:52 PM 88.0 °F 92.9 °F 70.0 °F 55% 29.83 in 10.0 mi SW 6.9 mph - N/A   Mostly Cloudy
3:52 PM 88.0 °F 92.9 °F 70.0 °F 55% 29.83 in 10.0 mi SW 8.1 mph - N/A   Mostly Cloudy
4:52 PM 88.0 °F 93.8 °F 71.1 °F 57% 29.82 in 10.0 mi SSW 6.9 mph - N/A   Scattered Clouds
5:52 PM 88.0 °F 94.7 °F 72.0 °F 59% 29.82 in 10.0 mi SW 6.9 mph - N/A   Partly Cloudy
6:52 PM 87.1 °F 92.8 °F 71.1 °F 59% 29.82 in 10.0 mi Variable 5.8 mph - N/A   Scattered Clouds
7:52 PM 84.9 °F 89.4 °F 70.0 °F 61% 29.82 in 10.0 mi SW 4.6 mph - N/A   Clear
8:52 PM 82.9 °F 87.5 °F 71.1 °F 67% 29.83 in 10.0 mi SW 4.6 mph - N/A   Clear
9:52 PM 82.9 °F 87.5 °F 71.1 °F 67% 29.83 in 10.0 mi Variable 3.5 mph - N/A   Clear
10:52 PM 82.9 °F 87.5 °F 71.1 °F 67% 29.83 in 10.0 mi Variable 4.6 mph - N/A   Clear
11:52 PM 81.0 °F 84.9 °F 71.1 °F 72% 29.83 in 10.0 mi WSW 4.6 mph - N/A   Clear